User: anonymous
Location: Caltech
(34.1382°N, 118.1253°W)
Time: 07:36:05
(UTC-07:00)
Language:

Cosmos 1626 - Orbit

View from above orbital plane
View from above orbital plane
View from above satellite
View from above satellite

Ground track
Ground track

The orbit data is extracted from the following two-line orbital elements,

1 15494U 85009A   14231.06949531  .00002340  00000-0  12209-3 0  6334
2 15494 082.4833 199.3557 0004278 081.5813 323.7079 15.15481390611847
Epoch (UTC): 19 August 2014 01:40:04
Eccentricity: 0.0004278
inclination: 82.4833°
perigee height: 516 km
apogee height: 522 km
right ascension of ascending node: 199.3557°
argument of perigee: 81.5813°
revolutions per day: 15.15481390
mean anomaly at epoch: 323.7079°
orbit number at epoch: 61184

The dashed part of the orbit path shows where the satellite is in the earth's shadow,  

DLR